Location: Lecco
(45.8566°N, 9.3977°E)
Time: 06:20:24
(UTC+02:00)

ISS - Pass Details

Date: 21 July 2018
Orbit: 402 x 408 km, 51.6° (Epoch: 23 July)

Event Time Altitude Azimuth Distance (km) Brightness Sun altitude
Rises 01:21:20 0° 285° (WNW) 2,326 0.2 -23.6°
Reaches altitude 10° 01:23:36 10° 297° (WNW) 1,467 -0.7 -23.6°
Maximum altitude 01:26:30 28° 359° (N) 796 -1.7 -23.6°
Drops below altitude 10° 01:29:25 10° 62° (ENE) 1,470 -0.7 -23.6°
Sets 01:31:41 0° 74° (ENE) 2,332 0.2 -23.6°
